Weather in Kanazawa

Japan     36°30′24″N   136°42′23″E
temp.,
°C
wind,
m/s
gust,
m/s
humid.,
%
clouds,
%
prec.,
mm/h
press.,
hPa
HPBL,
m
12 april, mon
mon1200:00+8se2266100 0.0 103252
03:00+7sse237136 0.0 103149
06:00+7sse2369100 0.0 103258
09:00+15se124344 0.0 1030737
12:00+19nw343086 0.0 10271925
15:00+18n3232100 0.0 10251312
18:00+15e1250100 0.0 1025120
21:00+13sse2359100 0.0 1024125
13 april, tue
tue1300:00+12se3565100 0.0 1022206
03:00+10sse2465100 0.0 1020139
06:00+11se3464100 0.0 1016134
09:00+12se3771100 1.0 1013423
12:00+14sse396299 0.1 1011627
15:00+14sse4967100 0.1 1009389
18:00+14sse487590 0.4 1011284
21:00+12ssw2383100 0.9 1012137
14 april, wed
wed1400:00+12wsw2497100 1.4 1012316
03:00+11wnw2397100 2.9 1012309
06:00+10ne2297100 0.2 1013338
09:00+8ene3491100 0.3 1014467
12:00+9ne448297 0.1 1014694
15:00+7ene3583100 0.3 1015867
18:00+7ene348073 0.1 1017699
21:00+5ene24834 0.1 1019340
15 april, thu
thu1500:00+4e23853 0.0 1020187
03:00+3ese23803 0.0 1021113
06:00+3e23720 0.0 102297
09:00+9ne23420 0.0 1021730
12:00+13ne33344 0.0 10201077
15:00+13nne3236100 0.0 1019819
18:00+9ene2352100 0.0 1021255
21:00+9ese2368100 0.0 102188
16 april, fri
fri1600:00+9sse227499 0.0 102155
03:00+8se35745 0.0 102099
06:00+8se457088 0.0 1021108
09:00+14wsw1257100 0.5 1020538
12:00+12e1272100 0.4 1020215
15:00+14se2461100 0.6 1019548
18:00+12e2371100 0.0 1019154
21:00+11se2376100 0.1 1021110